Погода в Тигили

Россия / Камчатский край     57°45′40″N   158°40′53″E
темп.,
°C
ветер,
м/с
пор.,
м/с
влажн.,
%
обл.,
%
осадки,
мм/ч
давл.,
гПа
погр.,
м
2 декабря, чт
чт200:00−10вюв2297100 0.5 101530
03:00−6всв51084100 0.0 1009218
06:00−5в71296100 2.7 1002415
09:00−5в71388100 1.4 996294
12:00−4юв71781100 1.6 991355
15:00−2юв81783100 0.0 984312
18:00−1вюв6148673 0.4 979287
21:00−2ююз2696100 0.2 980168
3 декабря, пт
пт300:00−1всв2299100 3.6 97837
03:00−3с2298100 2.8 97627
06:00−2всв4698100 4.4 974258
09:00−4ююв101782100 2.3 975728
12:00−1юз15238584 3.7 9781456
15:00−3юз14218781 0.9 9871112
18:00−3юз152293100 1.7 994978
21:00−4зюз11208291 0.9 10031336
4 декабря, сб
сб400:00−5зюз9178782 1.1 1006942
03:00−5юз81690100 0.3 1008777
06:00−4юз71383100 0.4 1011615
09:00−6ююз3589100 0.0 101165
12:00−4вюв1296100 0.4 100996
15:00−4всв4697100 2.9 1005301
18:00−4в4797100 5.6 1002250
21:00−3юв2493100 1.0 99897
5 декабря, вс
вс500:00−3юв3890100 1.0 995202
03:00−2ююв51091100 0.1 991253
06:00−3ююв4894100 0.3 989168
09:00−3ююз81493100 1.1 989723
12:00−8зсз61094100 1.8 996809
15:00−8зсз4894100 0.6 997580
18:00−14юз339781 0.6 99742
21:00−13ююв369659 0.1 99691
6 декабря, пн
пн600:00−9з8158191 0.6 997634
03:00−9зюз71589100 0.3 997663
06:00−9зюз61393100 0.6 998532
09:00−7зюз71594100 0.6 999861
12:00−6з81484100 1.5 9991064
15:00−6зюз81487100 0.1 1002943
18:00−6зюз71583100 0.4 1004660
21:00−5зюз71593100 0.3 1006834